• Join FlightAware (Why Join?)
  • Login
  • US Flag 
09:33AM EDT


 

Airport Tracker/Info


-or-


 

Live Flight TrackerFlight Track Log ✈ SWA2702 ✈ 19-Apr-2013 ✈ KSNA - KSFO

Flight Track Log - Related Links

Times and Time Zones

All times are in EDT time to prevent confusion due to time zone crossing. See the SWA2702 flight status page for this flight to view local times or setup timezone preferences in your user account.

Time Position Orientation Groundspeed Altitude Reporting Facility
EDT Latitude Longitude Course Direction KTS MPH feet Rate Location/Type
11:12AM 33.6500 -117.8833 194° South 155 178 1,400  Level Southern California TRACON
11:13AM 33.5925 -117.9003 194° South 160 184 3,100 1,920 Climbing Los Angeles Center
11:15AM 33.5197 -117.9469 208° Southwest 250 288 6,200 3,420 Climbing Los Angeles Center
11:16AM 33.4511 -118.0000 213° Southwest 283 326 10,200 3,120 Climbing Los Angeles Center
11:17AM 33.3722 -118.0575 211° Southwest 315 362 12,700 2,640 Climbing Los Angeles Center
11:18AM 33.3400 -118.1653 250° West 349 402 15,700 2,880 Climbing Los Angeles Center
11:19AM 33.3903 -118.2669 301° West 360 414 18,700 2,880 Climbing Los Angeles Center
11:20AM 33.4578 -118.3592 311° West 365 420 21,700 2,640 Climbing Los Angeles Center
11:21AM 33.5297 -118.4553 312° West 376 433 24,200 2,220 Climbing Los Angeles Center
11:22AM 33.6069 -118.5569 312° West 402 463 26,300 2,160 Climbing Los Angeles Center
11:23AM 33.7022 -118.6825 312° West 417 480 28,700 2,220 Climbing Los Angeles Center
11:24AM 33.7811 -118.7883 312° West 422 486 31,000 1,560 Climbing Los Angeles Center
11:25AM 33.8603 -118.8933 312° West 423 487 32,000 480 Climbing Los Angeles Center
11:26AM 33.9389 -118.9994 312° West 424 488 32,000  Level Los Angeles Center
11:27AM 34.0164 -119.1047 312° West 422 486 32,000  Level Los Angeles Center
11:28AM 34.0942 -119.2094 312° West 419 482 32,000  Level Los Angeles Center
11:29AM 34.1864 -119.3350 312° West 417 480 32,000  Level Los Angeles Center
11:30AM 34.2636 -119.4392 312° West 416 479 32,000  Level Los Angeles Center
11:31AM 34.3400 -119.5431 312° West 414 476 32,000  Level Los Angeles Center
11:32AM 34.4161 -119.6489 311° West 416 479 32,000  Level Los Angeles Center
11:33AM 34.4944 -119.7539 312° West 418 481 32,000  Level Los Angeles Center
11:34AM 34.5778 -119.8489 317° Northwest 413 475 32,000  Level Los Angeles Center
11:35AM 34.6717 -119.9500 318° Northwest 415 478 32,000  Level Los Angeles Center
11:36AM 34.7575 -120.0428 318° Northwest 413 475 32,000  Level Los Angeles Center
11:37AM 34.8547 -120.1494 318° Northwest 413 475 32,000  Level Los Angeles Center
11:38AM 34.9389 -120.2408 318° Northwest 411 473 32,000  Level Los Angeles Center
11:39AM 35.0231 -120.3336 318° Northwest 410 472 32,000  Level Los Angeles Center
11:40AM 35.1086 -120.4278 318° Northwest 415 478 32,000  Level Los Angeles Center
11:41AM 35.2103 -120.5414 318° Northwest 416 479 32,000  Level Los Angeles Center
11:42AM 35.2950 -120.6369 317° Northwest 416 479 32,000  Level Los Angeles Center
11:44AM 35.3794 -120.7314 318° Northwest 415 478 32,000  Level Los Angeles Center
11:44AM 35.4414 -120.8019 317° Northwest 408 470 32,000  Level Oakland Center
11:45AM 35.5278 -120.8986 318° Northwest 413 475 32,000  Level Oakland Center
11:46AM 35.6122 -120.9931 318° Northwest 409 471 32,000  Level Oakland Center
11:47AM 35.6961 -121.0881 317° Northwest 407 468 32,000  Level Oakland Center
11:48AM 35.7794 -121.1842 317° Northwest 408 470 32,000 -240 Level Oakland Center
11:49AM 35.8800 -121.2978 318° Northwest 407 468 31,600 -780 Descending Oakland Center
11:50AM 35.9614 -121.3917 317° Northwest 400 460 30,500 -1,080 Descending Oakland Center
11:51AM 36.0428 -121.4825 318° Northwest 393 452 29,500 -1,020 Descending Oakland Center
11:52AM 36.1197 -121.5742 316° Northwest 383 441 28,500 -1,020 Descending Oakland Center
11:53AM 36.1997 -121.6619 318° Northwest 383 441 27,500 -1,020 Descending Oakland Center
11:55AM 36.2858 -121.7358 325° Northwest 375 432 26,500 -1,140 Descending Oakland Center
11:56AM 36.3800 -121.8172 325° Northwest 370 426 25,300 -1,560 Descending Oakland Center
11:57AM 36.4631 -121.8844 327° Northwest 356 410 23,400 -1,920 Descending Oakland Center
11:58AM 36.5583 -121.9108 347° North 351 404 21,400 -1,680 Descending Oakland Center
11:59AM 36.6486 -121.9369 347° North 334 384 20,000 -1,080 Descending Oakland Center
11:59AM 36.6833 -121.9500 343° North 324 373 20,000 -660 Level Northern Cal TRACON
12:00PM 36.7667 -121.9667 351° North 328 377 19,200 -1,140 Descending Northern Cal TRACON
12:01PM 36.8333 -122.0500 315° West 320 368 17,800 -1,560 Descending Northern Cal TRACON
12:02PM 36.8500 -122.1333 284° West 295 339 16,300 -1,980 Descending Northern Cal TRACON
12:03PM 36.8819 -122.2161 296° West 293 337 14,300 -1,200 Descending Oakland Center
12:04PM 36.9133 -122.3064 294° West 286 329 14,000 -180 Descending Oakland Center
12:05PM 36.9533 -122.3836 303° West 281 323 14,000  Level Oakland Center
12:06PM 37.0256 -122.3578 16° North 270 311 14,000 -540 Level Oakland Center
12:07PM 37.0978 -122.3264 19° North 273 314 13,000 -1,080 Descending Oakland Center
12:08PM 37.1689 -122.2939 20° North 272 313 11,900 -1,080 Descending Oakland Center
12:09PM 37.2350 -122.2678 17° North 257 296 10,800 -1,080 Descending Oakland Center
12:10PM 37.2942 -122.2339 24° Northeast 241 277 9,700 -1,500 Descending Oakland Center
12:11PM 37.3536 -122.1742 39° Northeast 228 262 7,800 -1,740 Descending Oakland Center
12:12PM 37.4053 -122.1233 38° Northeast 232 267 6,200 -1,440 Descending Oakland Center
12:13PM 37.4500 -122.1000 22° Northeast 240 276 5,200 -1,140 Descending Northern Cal TRACON
12:14PM 37.5000 -122.1167 345° North 186 214 4,200 -960 Descending Northern Cal TRACON
12:16PM 37.5589 -122.2367 302° West 184 212 2,100 -900 Descending Oakland Center
12:17PM 37.5797 -122.2867 298° West 174 200 1,300 -840 Descending Oakland Center
12:18PM 37.5981 -122.3306 298° West 158 182 500 -780 Descending Oakland Center
12:21PM 37.6167 -122.3667 322° Northwest  Level FlightAware Approximate